Regional Weather Roundup
Issued by NWS

Home | Current Version | Previous Version | Text Only | Print | Product List | Glossary Off
Versions: 1 2 3 4 5 6 7 8 9 10 11 12 13 14 15 16 17 18 19 20 21 22 23 24 25 26 27 28 29 30 31 32 33 34 35 36 37 38 39 40 41 42 43 44 45 46 47 48 49 50

000
ASUS43 KLOT 280509
RWRIL

ILLINOIS REGIONAL WEATHER ROUNDUP
NATIONAL WEATHER SERVICE CHICAGO/ROMEOVILLE IL
1200 AM CDT MON MAY 28 2018

NOTE: "FAIR" INDICATES FEW OR NO CLOUDS BELOW 12,000 FEET WITH NO
SIGNIFICANT WEATHER AND/OR OBSTRUCTIONS TO VISIBILITY.

* THESE STATIONS ARE NOT UNDER NWS QUALITY CONTROL. THEY ALSO MAY NOT
  REPORT WEATHER SUCH AS PRECIPITATION OR FOG.

ILZ001-002-007-009-015-016-024-280600-
NORTHWEST ILLINOIS

CITY           SKY/WX    TMP DP  RH WIND       PRES   REMARKS
MOLINE         FAIR      72  69  90 CALM      29.88S
STERLING*        N/A     73  67  81 CALM      29.89
SAVANNA*       FAIR      73  70  90 CALM      29.89S
$$

ILZ003-004-008-010-011-017-018-280600-
NORTH CENTRAL ILLINOIS

CITY           SKY/WX    TMP DP  RH WIND       PRES   REMARKS
ROCKFORD       FAIR      75  61  61 SE3       29.90S
FREEPORT*      FAIR      80  65  61 W7        29.91F HX  82
ROCHELLE*      FAIR      74  63  68 SE6       29.90F
DE KALB*       FAIR      78  60  54 SW5       29.92S
PERU*          FAIR      81  64  56 N3        29.90S HX  83
$$

ILZ005-006-012>014-019>023-280600-
NORTHEAST ILLINOIS

CITY           SKY/WX    TMP DP  RH WIND       PRES   REMARKS
CHICAGO-OHARE  FAIR      81  60  48 CALM      29.90R HX  82
CHICAGO-MIDWAY FAIR      83  58  42 S5        29.90R HX  83
AURORA         FAIR      74  66  76 CALM      29.90R
LANSING*       FAIR      74  62  67 S3        29.91S
JOLIET*        FAIR      79  64  60 CALM      29.90S HX  80
WAUKEGAN       FAIR      69  64  84 CALM      29.91R
DUPAGE AIRPORT FAIR      75  64  68 SE3       29.90R
KANKAKEE*      FAIR      74  64  69 CALM      29.92S
WHEELING       FAIR      74  62  66 CALM      29.93R
MORRIS*        FAIR      76  61  59 S5        29.89S
ROMEOVILLE*    FAIR      76  62  61 SE7       29.90S
$$

LMZ740>746-280600-
SOUTHERN LAKE MICHIGAN

STATION/POSITION SKY/WX   TEMP    WIND        PRES    VSBY  WAVE
                          AIR SEA DIR/SP/G                  HT/PER
                          (F)     (DEG/KT/KT) (MB)    (MI)  (FT/S)
SOUTHERN BUOY              62 47  160/  6/  6 1012.8F         0
WILMETTE HARBOR            65 59   70/  4/  6   N/A           0
HARRISON CRIB              84     190/ 10/ 10   N/A
BURNHAM HARBOR                    170/  2/  6   N/A
CALUMET HARBOR             82     170/  3/  5 1012.3R
BURNS HARBOR               79        CALM     1013.5R
MICHIGAN CITY              80     120/  8/  8   N/A
MICHIGAN CITY 6N           74 67  200/  4/  8   N/A           0
ST. JOSEPH                 73 71   80/  2/  2 1012.9          0
$$

ILZ025>027-034>036-040-047-049-050-058-095>099-280600-
WEST-CENTRAL ILLINOIS

CITY           SKY/WX    TMP DP  RH WIND       PRES   REMARKS
QUINCY         PTCLDY    74  66  76 CALM      29.90R
GALESBURG*     FAIR      72  66  83 CALM      29.91S
MACOMB*        PTCLDY    72  70  94 CALM      29.92S
JACKSONVILLE*  CLEAR     77  70  79 S3        29.90S
PITTSFIELD*    PTCLDY    74  72  91 CALM      29.91S
$$

ILZ028>032-037-038-041>044-048-051>054-059>061-280600-
CENTRAL ILLINOIS

CITY           SKY/WX    TMP DP  RH WIND       PRES   REMARKS
PONTIAC        FAIR      77  70  77 SW5       29.92S
BLOOMINGTON    FAIR      75  67  76 SW5       29.94R
DECATUR        FAIR      73  65  75 MISG      29.92R
PEORIA         FAIR      75  70  84 CALM      29.91R
LACON*         FAIR      73  68  87 CALM      29.90R
LINCOLN*       FAIR      74  69  83 CALM      29.92R
SPRINGFIELD    FAIR      75  68  78 CALM      29.91R
TAYLORVILLE    FAIR      71  68  92 CALM      29.92R
$$

ILZ033-039-045-046-055>057-062-063-280600-
EAST-CENTRAL ILLINOIS

CITY           SKY/WX    TMP DP  RH WIND       PRES   REMARKS
CHAMPAIGN      FAIR      73  68  84 CALM      29.93R
DANVILLE*      FAIR      74  69  83 CALM      29.90R
RANTOUL*       FAIR      76  70  82 CALM      29.93R
MATTOON        FAIR      74  69  85 S5        29.91S
PARIS*         FAIR      73  70  89 CALM      29.93S
$$

ILZ079-100>102-280600-
SOUTHWEST ILLINOIS

CITY           SKY/WX    TMP DP  RH WIND       PRES   REMARKS
ALTON          PTCLDY    70  70 100 CALM      29.91S
BELLEVILLE     PTCLDY    70  69  96 SE3       29.90R
CAHOKIA*       PTCLDY    72  67  84 CALM      29.90R
SPARTA*        CLEAR     75  74  95 CALM      29.92S
$$

ILZ064>066-069>071-074>076-080>082-084>086-088>090-092>094-280600-
SOUTH-CENTRAL ILLINOIS

CITY           SKY/WX    TMP DP  RH WIND       PRES   REMARKS
CARBONDALE     FAIR      73  71  93 E3        29.91F
CAIRO*         FAIR      75  73  93 CALM      29.90S
EFFINGHAM*     FAIR      71  70  97 CALM      29.94S
MARION         FAIR      69  69  98 CALM      29.93S FOG
MT. VERNON     FAIR      70  68  93 CALM      29.92F
CENTRALIA*     PTCLDY    73  71  94 CALM      29.91S
SALEM*         FAIR      75  71  87 CALM      29.92S
METROPOLIS*    FAIR      74  72  92 CALM      29.91F
$$

ILZ067-068-072-073-078-083-087-091-280600-
SOUTHEAST ILLINOIS

CITY           SKY/WX    TMP DP  RH WIND       PRES   REMARKS
LAWRENCEVILLE  FAIR      76  66  71 E3        29.93R
FLORA*         FAIR      73  71  93 CALM      29.92S
FAIRFIELD*     FAIR      69  69 100 CALM      29.91S
HARRISBURG*    FAIR      71  70  96 CALM      29.92S
ROBINSON*      FAIR      70  68  93 CALM      29.94R
CARMI*         FAIR      72  69  90 CALM      29.91F
$$

ABBREVIATIONS USED IN REMARKS
   TC - TEMPERATURE IN CELSIUS
  WCI - WIND CHILL INDEX
   HX - HEAT INDEX
  VSB - VISIBILITY
$$




USA.gov is the U.S. government's official web portal to all federal, state and local government web resources and services.